Shreveport Downtown, LA

1:16 PM CST on December 11, 2017 (GMT -0600)
Shreveport Downtown

Weather History for KDTN - March, 2014

Change the Weather History Date:

Thursday, March 27, 2014

  Actual Average (KBAD) Record (KBAD)
Temperature  
Mean Temperature 59 °F -  
Max Temperature 66 °F 68 °F 84 °F (2012)
Min Temperature 52 °F 49 °F 29 °F (2013)
Degree Days  
Heating Degree Days 6    
Growing Degree Days 9 (Base 50)    
Moisture  
Dew Point 54 °F    
Average Humidity 83    
Maximum Humidity 97    
Minimum Humidity 54    
Precipitation  
Precipitation 0.18 in - - ()
Sea Level Pressure  
Sea Level Pressure 29.89 in    
Wind  
Wind Speed 13 mph (SSE)    
Max Wind Speed 22 mph    
Max Gust Speed 33 mph    
Visibility 9 miles    
Events Rain , Thunderstorm    
Averages and records for this station are not official NWS values.
T = Trace of Precipitation, MM = Missing Value Source: NWS Daily Summary

Daily Weather History Graph

Daily Weather History Graph

Search for Another Location

Airport or City:

Trip Planner

Search our weather history database for the weather conditions in past years. The results will help you decide how hot, cold, wet, or windy it might be!

Date:

Astronomy

Mar. 27, 2014 Rise Set
Actual Time 7:09 AM CDT 7:31 PM CDT
Civil Twilight 6:44 AM CDT 7:56 PM CDT
Nautical Twilight 6:16 AM CDT 8:25 PM CDT
Astronomical Twilight 5:46 AM CDT 8:54 PM CDT
Moon 4:50 AM CDT (3/27) 4:29 PM CDT (3/27)
Length of Visible Light 13h 11m
Length of Day
12h 21m
Waning Crescent, 13% of the Moon is Illuminated
Mar 27
Waning Crescent
Mar 30
New
Apr 7
First Quarter
Apr 15
Full
Apr 22
Last Quarter

Hourly Weather History & Observations

Time (CDT) Temp. Dew Point Humidity Pressure Visibility Wind Dir Wind Speed Gust Speed Precip Events Conditions
12:38 AM 53.6 °F 37.4 °F 54% 30.05 in 10.0 mi SSE 16.1 mph - N/A   Overcast
12:53 AM 53.1 °F 37.0 °F 55% 30.04 in 10.0 mi SSE 12.7 mph 19.6 mph N/A   Overcast
1:53 AM 53.1 °F 39.0 °F 59% 30.03 in 10.0 mi SSE 12.7 mph - N/A   Overcast
2:53 AM 52.0 °F 41.0 °F 66% 30.01 in 10.0 mi SSE 11.5 mph - N/A   Overcast
3:53 AM 52.0 °F 42.1 °F 69% 29.98 in 10.0 mi SSE 10.4 mph - N/A   Overcast
4:53 AM 53.1 °F 44.1 °F 71% 29.95 in 10.0 mi SSE 12.7 mph - N/A   Overcast
5:53 AM 53.1 °F 45.0 °F 74% 29.94 in 10.0 mi SSE 13.8 mph - N/A   Overcast
6:51 AM 53.6 °F 46.4 °F 77% 29.95 in 10.0 mi SSE 12.7 mph - N/A   Overcast
6:53 AM 53.1 °F 46.0 °F 77% 29.95 in 10.0 mi SSE 10.4 mph - N/A   Overcast
7:53 AM 54.0 °F 48.0 °F 80% 29.95 in 10.0 mi SE 10.4 mph - N/A   Overcast
8:27 AM 55.4 °F 48.2 °F 77% 29.95 in 10.0 mi SSE 17.3 mph 21.9 mph N/A   Overcast
8:53 AM 55.0 °F 48.9 °F 80% 29.94 in 10.0 mi SSE 16.1 mph 21.9 mph N/A   Overcast
9:19 AM 55.4 °F 50.0 °F 82% 29.95 in 10.0 mi SSE 12.7 mph 21.9 mph N/A   Overcast
9:53 AM 57.0 °F 51.1 °F 81% 29.94 in 10.0 mi SSE 15.0 mph - N/A   Overcast
10:53 AM 60.1 °F 53.1 °F 78% 29.93 in 10.0 mi SE 15.0 mph - N/A   Overcast
11:53 AM 62.1 °F 55.0 °F 78% 29.92 in 10.0 mi SSE 12.7 mph - N/A   Overcast
12:53 PM 63.0 °F 55.9 °F 78% 29.91 in 10.0 mi SSE 8.1 mph - 0.00 in Rain Light Rain
1:13 PM 62.6 °F 55.4 °F 77% 29.90 in 10.0 mi SSE 10.4 mph - 0.00 in Thunderstorm Overcast
1:53 PM 62.1 °F 57.9 °F 86% 29.88 in 7.0 mi SSE 9.2 mph - 0.04 in Rain Light Rain
2:24 PM 66.2 °F 60.8 °F 83% 29.85 in 10.0 mi South 21.9 mph 33.4 mph 0.00 in Thunderstorm Thunderstorm
2:53 PM 66.0 °F 61.0 °F 84% 29.84 in 10.0 mi South 16.1 mph 27.6 mph 0.00 in   Overcast
3:44 PM 64.4 °F 60.8 °F 88% 29.81 in 9.0 mi South 13.8 mph 24.2 mph 0.00 in Rain , Thunderstorm Light Rain
3:53 PM 64.9 °F 61.0 °F 87% 29.81 in 9.0 mi South 11.5 mph - 0.00 in Rain Light Rain
4:09 PM 64.4 °F 60.8 °F 88% 29.83 in 7.0 mi South 16.1 mph - 0.02 in Rain , Thunderstorm Light Rain
4:48 PM 64.4 °F 62.6 °F 94% 29.81 in 6.0 mi SSE 11.5 mph - 0.06 in Rain Light Rain
4:53 PM 64.0 °F 62.1 °F 93% 29.80 in 8.0 mi South 11.5 mph - 0.06 in Rain Light Rain
5:06 PM 64.4 °F 62.6 °F 94% 29.81 in 8.0 mi South 10.4 mph - 0.00 in   Overcast
5:14 PM 64.4 °F 62.6 °F 94% 29.80 in 8.0 mi SSE 13.8 mph 18.4 mph 0.00 in   Overcast
5:53 PM 64.0 °F 62.1 °F 93% 29.80 in 3.0 mi SSE 12.7 mph - 0.02 in Rain Rain
5:59 PM 64.4 °F 62.6 °F 94% 29.80 in 4.0 mi SSE 12.7 mph - 0.00 in Rain Light Rain
6:53 PM 63.0 °F 62.1 °F 97% 29.80 in 5.0 mi Calm Calm - 0.02 in Rain Light Rain
7:53 PM 63.0 °F 62.1 °F 97% 29.80 in 5.0 mi SE 4.6 mph - 0.03 in Rain Light Rain
8:53 PM 63.0 °F 62.1 °F 97% 29.80 in 10.0 mi SE 8.1 mph - 0.01 in   Overcast
9:53 PM 63.0 °F 62.1 °F 97% 29.82 in 10.0 mi SSE 9.2 mph - N/A   Overcast
10:53 PM 63.0 °F 62.1 °F 97% 29.83 in 10.0 mi SSE 8.1 mph - N/A   Overcast
11:53 PM 63.0 °F 62.1 °F 97% 29.82 in 10.0 mi SSE 5.8 mph - N/A   Overcast